Preview of NWS' New Version of Forecast
This preview is not operational and should not be used for support decisions.

Regional Weather Roundup (RWR)

Issued by National Weather Service (NWS)

                            
000
ASUS43 KDTX 230110
RWRMI 
MICHIGAN HOURLY REGIONAL WEATHER ROUNDUP
NATIONAL WEATHER SERVICE DETROIT/PONTIAC MI
900 PM EDT FRI MAR 22 2019

NOTE: "FAIR" INDICATES FEW OR NO CLOUDS BELOW 12,000 FEET WITH NO
SIGNIFICANT WEATHER AND/OR OBSTRUCTION TO VISIBILITY.

MIZ047>049-052>055-059>063-066>070-074>076-081>083-230200-
SOUTHEAST LOWER MICHIGAN
  
CITY           SKY/WX    TMP DP  RH WIND       PRES   REMARKS
ADRIAN         FAIR      36  18  48 N8        30.09R WCI  30          
ALMA           FAIR      32  18  55 NW7       30.14R WCI  26          
ANN ARBOR      FAIR      35  20  54 NW14      30.07R WCI  26          
BAD AXE        FAIR      31  20  63 N13       30.06R WCI  21          
CARO           FAIR      32  20  62 NW12G18   30.07R WCI  23          
DETROIT CITY   FAIR      32  22  66 N12       30.06R WCI  23          
DETROIT        FAIR      36  19  50 NW15G22   30.07R WCI  27          
FLINT          FAIR      32  19  58 NW13      30.09R WCI  22          
GROSSE ILE     MOCLDY    37  22  55 NW12G18   30.05R WCI  29          
HILLSDALE      FAIR      35  21  56 NW12      30.08R WCI  27          
HOWELL         FAIR      33  18  55 NW10G20   30.08R WCI  24          

CITY           SKY/WX    TMP DP  RH WIND       PRES   REMARKS
JACKSON        FAIR      36  19  50 NW8G17    30.09R WCI  30          
LAMBERTVILLE   FAIR      37  21  53 N9        30.08R WCI  30          
LANSING        FAIR      33  19  56 NW10      30.12R WCI  25          
LAPEER         FAIR      33  22  63 N7        30.06R WCI  27          
MASON          FAIR      34  20  57 NW8       30.10R WCI  27          
MONROE         FAIR      36  21  55 N10       30.07R WCI  28          
PONTIAC        FAIR      33  18  53 NW14      30.04R WCI  23          
PORT HOPE        N/A     32  20  61 NW20G30   30.05R WCI  20          
PORT HURON     FAIR      32  19  59 N7        30.06R WCI  26          
TRI CITIES     FAIR      31  20  63 NW14      30.11R WCI  21          
MIDLAND        FAIR      31  19  61 NW9       30.12R WCI  23          
TROY           FAIR      36  17  46 NW9       30.08R WCI  29          
SAGINAW HB     FAIR      34  23  64 NW12      30.10R WCI  25          
$$
MIZ043>046-050>051-056>058-064>065-071>073-077>080-230200-
SOUTHWEST LOWER MICHIGAN
  
CITY           SKY/WX    TMP DP  RH WIND       PRES   REMARKS
BATTLE CREEK   FAIR      34  22  61 NW14      30.13R WCI  25          
BENTON HARBOR  FAIR      32  24  72 VRB5      30.21R WCI  27          
BIG RAPIDS     FAIR      31  20  65 NW9       30.14R WCI  23          
COLDWATER      FAIR      35  26  67 NW10      30.12R WCI  28          
FREMONT        FAIR      30  21  69 N9        30.18R WCI  22          
HOLLAND        FAIR      32  22  66 N8        30.18R WCI  25          
GRAND RAPIDS   FAIR      32  20  61 NW10      30.15R WCI  24          
IONIA          FAIR      33  18  53 NW8       30.12R WCI  26          
KALAMAZOO      FAIR      32  23  69 NW13      30.15R WCI  22          
LUDINGTON      FAIR      30  21  70 N8        30.20R WCI  22          
MARSHALL       FAIR      35  23  62 NW7       30.11R WCI  29          
MOUNT PLEASANT FAIR      31  16  53 NW8       30.13R WCI  24          
MUSKEGON       FAIR      31  19  61 N12       30.19R WCI  22          
SOUTH HAVEN    FAIR      32  24  72 N13G18    30.19S WCI  22          
$$
MIZ016>042-230200-
NORTHERN LOWER MICHIGAN
  
CITY           SKY/WX    TMP DP  RH WIND       PRES   REMARKS
ALPENA         FAIR      27  14  58 NW14G26   30.11R WCI  16          
BEAVER ISLAND  FAIR      26  17  68 N6        30.20R WCI  19          
BELLAIRE       FAIR      28  19  69 NW3       30.20R                  
CADILLAC       FAIR      27  21  77 NW10G16   30.13R WCI  17          
CHARLEVOIX     FAIR      28  20  72 NW9       30.22R WCI  19          
FRANKFORT      FAIR      32  19  58 N3        30.21R                  
GAYLORD        FAIR      23  14  68 NW7       30.12R WCI  15          
GRAYLING         N/A     25  17  71 NW13G20   30.12R WCI  13          
HARBOR SPRINGS FAIR      26  14  60 NW6       30.18R WCI  20          
HOUGHTON LAKE  FAIR      26  17  68 NW13G21   30.12R WCI  15          
MANISTEE       FAIR      29  21  72 N9        30.20S WCI  20          
OSCODA         FAIR      29  11  46 NW12G20   30.08R WCI  20          
PELLSTON       FAIR      26  14  60 NW14G23   30.18R WCI  14          
ROGERS CITY    FAIR      28  17  63 NW18G26   30.13R WCI  15          
TRAVERSE CITY  FAIR      29  20  69 NW10      30.19R WCI  20          
$$
MIZ007>008-015-230200-
EASTERN UPPER MICHIGAN
  
CITY           SKY/WX    TMP DP  RH WIND       PRES   REMARKS
KINROSS        FAIR      23  17  78 NW15      30.15R WCI  10          
MACKINAC ISLAN FAIR      26  15  64 N12       30.16R WCI  15          
NEWBERRY       FAIR      24  15  69 NW6       30.18R WCI  17          
S. S. MARIE    FAIR      26  16  65 NW14G26   30.15R WCI  14          
MUNISING         N/A     26  18  71 N15       30.22F WCI  14          
$$
MIZ004>006-011>014-085-230200-
CENTRAL UPPER MICHIGAN
  
CITY           SKY/WX    TMP DP  RH WIND       PRES   REMARKS
MANISTIQUE     FAIR      25  13  59 NW12      30.20R WCI  14          
ESCANABA       FAIR      28  16  60 N6        30.22R WCI  22          
MENOMINEE      FAIR      30  23  75 SE6       30.23R WCI  24          
SAWYER-GWINN   CLEAR     23  19  86 N7        30.20S WCI  15          
$$
MIZ001>003-009>011-084-230200-
WESTERN UPPER MICHIGAN
  
CITY           SKY/WX    TMP DP  RH WIND       PRES   REMARKS
IRON MOUNTAIN  FAIR      30  18  60 N6        30.19S WCI  24          
HOUGHTON       FAIR      27  12  53 CALM      30.22S                  
COPPER HARBOR    N/A     26  15  63 NW3       30.24S                  
IRONWOOD       FAIR      27  18  69 CALM      30.24S                  
$$

ABBREVIATIONS USED IN REMARKS
   TC - TEMPERATURE IN CELSIUS
  WCI - WIND CHILL INDEX
   HX - HEAT INDEX
  VSB - VISIBILITY